Palestine, IL

11:53 AM CDT on August 31, 2016 (GMT -0500)
Robinson Municipal

Weather History for KRSV - November, 2013

Change the Weather History Date:

Wednesday, November 6, 2013

  Actual Average (KLWV) Record (KLWV)
Temperature  
Mean Temperature 50 °F 50 °F  
Max Temperature 61 °F 61 °F 73 °F (1999)
Min Temperature 40 °F 40 °F 20 °F (1991)
Degree Days  
Heating Degree Days 14 15  
Month to date heating degree days 83  
Since 1 July heating degree days 380  
Cooling Degree Days 0 0  
Month to date cooling degree days 0  
Year to date cooling degree days 1386  
Moisture  
Dew Point 49 °F    
Average Humidity 87    
Maximum Humidity 96    
Minimum Humidity 64    
Precipitation  
Precipitation 0.26 in 0.12 in 0.58 in (2000)
Month to date precipitation 0.72  
Year to date precipitation 37.24  
Sea Level Pressure  
Sea Level Pressure 30.08 in    
Wind  
Wind Speed 13 mph (WSW)    
Max Wind Speed 22 mph    
Max Gust Speed 26 mph    
Visibility 9 miles    
Events Rain    
T = Trace of Precipitation, MM = Missing Value Source: NWS Daily Summary

Daily Weather History Graph

Daily Weather History Graph

Search for Another Location

Airport or City:

Trip Planner

Search our weather history database for the weather conditions in past years. The results will help you decide how hot, cold, wet, or windy it might be!

Date:

Astronomy

Nov. 06, 2013 Rise Set
Actual Time 6:23 AM CST 4:44 PM CST
Civil Twilight 5:55 AM CST 5:12 PM CST
Nautical Twilight 5:23 AM CST 5:43 PM CST
Astronomical Twilight 4:52 AM CST 6:15 PM CST
Moon 9:37 AM CST (11/6) 7:48 PM CST (11/6)
Length of Visible Light 11h 16m
Length of Day
10h 20m
Waxing Crescent, 14% of the Moon is Illuminated
Nov 6
Waxing Crescent
Nov 9
First Quarter
Nov 17
Full
Nov 25
Last Quarter
Dec 2
New

Hourly Weather History & Observations

Time (CST) Temp. Windchill Dew Point Humidity Pressure Visibility Wind Dir Wind Speed Gust Speed Precip Events Conditions
12:55 AM 61.7 °F - 49.5 °F 64% 30.11 in 10.0 mi South 13.8 mph 20.7 mph N/A   Overcast
1:15 AM 61.7 °F - 49.6 °F 65% 30.10 in 10.0 mi South 12.7 mph - N/A   Overcast
1:55 AM 59.2 °F - 52.2 °F 78% 30.10 in 10.0 mi South 11.5 mph - N/A Rain Light Rain
2:15 AM 58.8 °F - 52.3 °F 79% 30.09 in 10.0 mi South 11.5 mph 16.1 mph N/A Rain Light Rain
2:35 AM 58.3 °F - 52.3 °F 81% 30.07 in 10.0 mi South 12.7 mph 16.1 mph N/A Rain Light Rain
2:55 AM 58.3 °F - 52.2 °F 80% 30.07 in 10.0 mi South 10.4 mph - N/A Rain Light Rain
3:15 AM 58.6 °F - 51.8 °F 78% 30.06 in 10.0 mi South 9.2 mph - N/A   Mostly Cloudy
3:35 AM 59.0 °F - 51.4 °F 76% 30.04 in 10.0 mi South 13.8 mph 19.6 mph N/A   Overcast
3:55 AM 59.5 °F - 50.7 °F 73% 30.04 in 10.0 mi South 15.0 mph 18.4 mph N/A   Overcast
4:15 AM 60.1 °F - 50.0 °F 69% 30.04 in 10.0 mi South 15.0 mph 21.9 mph N/A   Overcast
4:35 AM 60.3 °F - 49.5 °F 68% 30.04 in 10.0 mi South 19.6 mph 26.5 mph N/A   Overcast
4:55 AM 60.1 °F - 49.3 °F 67% 30.04 in 10.0 mi South 15.0 mph 24.2 mph N/A   Overcast
5:15 AM 60.3 °F - 48.9 °F 66% 30.05 in 10.0 mi SSW 16.1 mph 23.0 mph N/A   Overcast
5:35 AM 58.6 °F - 50.0 °F 73% 30.04 in 10.0 mi South 15.0 mph 25.3 mph N/A Rain Light Rain
5:55 AM 58.1 °F - 50.0 °F 74% 30.04 in 10.0 mi South 13.8 mph - N/A   Overcast
6:15 AM 57.6 °F - 50.0 °F 76% 30.04 in 10.0 mi South 12.7 mph 18.4 mph N/A Rain Rain
6:35 AM 56.1 °F - 50.7 °F 82% 30.04 in 10.0 mi South 11.5 mph - 0.01 in Rain Rain
6:55 AM 55.4 °F - 50.9 °F 85% 30.03 in 10.0 mi South 13.8 mph - 0.03 in Rain Rain
7:15 AM 55.0 °F - 51.4 °F 88% 30.03 in 10.0 mi South 10.4 mph - 0.01 in Rain Light Rain
7:35 AM 54.7 °F - 51.8 °F 90% 30.04 in 7.0 mi South 9.2 mph - 0.03 in Rain Rain
7:55 AM 54.5 °F - 51.8 °F 91% 30.04 in 10.0 mi South 9.2 mph - 0.04 in Rain Rain
8:15 AM 54.3 °F - 51.8 °F 91% 30.03 in 7.0 mi South 9.2 mph - 0.02 in Rain Rain
8:35 AM 54.5 °F - 51.8 °F 91% 30.02 in 7.0 mi South 12.7 mph 18.4 mph 0.05 in Rain Rain
8:55 AM 54.7 °F - 51.8 °F 90% 30.03 in 10.0 mi SSW 12.7 mph 19.6 mph 0.05 in   Light Drizzle
9:15 AM 54.5 °F - 52.0 °F 91% 30.04 in 5.0 mi South 12.7 mph 17.3 mph 0.02 in Rain Rain
9:35 AM 54.5 °F - 52.7 °F 94% 30.04 in 5.0 mi SSW 12.7 mph - 0.06 in Rain Rain
9:55 AM 54.7 °F - 52.9 °F 94% 30.04 in 7.0 mi SSW 12.7 mph 18.4 mph 0.06 in   Drizzle
10:15 AM 55.6 °F - 54.0 °F 94% 30.04 in 7.0 mi SSW 13.8 mph 19.6 mph 0.01 in   Overcast
10:35 AM 56.5 °F - 54.5 °F 93% 30.03 in 10.0 mi SSW 16.1 mph 20.7 mph 0.01 in   Overcast
10:55 AM 56.7 °F - 54.7 °F 93% 30.01 in 10.0 mi SSW 15.0 mph 21.9 mph 0.01 in Rain Light Rain
11:15 AM 57.2 °F - 55.0 °F 92% 29.98 in 10.0 mi South 18.4 mph 25.3 mph N/A   Light Drizzle
11:35 AM 57.6 °F - 55.4 °F 92% 30.00 in 10.0 mi SSW 21.9 mph 26.5 mph N/A   Overcast
11:55 AM 57.6 °F - 55.4 °F 92% 30.00 in 10.0 mi SSW 18.4 mph 21.9 mph N/A   Overcast
12:15 PM 57.6 °F - 55.2 °F 92% 30.01 in 10.0 mi SW 17.3 mph 25.3 mph N/A   Overcast
12:35 PM 58.1 °F - 55.4 °F 91% 30.01 in 10.0 mi SW 18.4 mph 21.9 mph N/A   Overcast
12:55 PM 58.1 °F - 55.4 °F 91% 30.01 in 10.0 mi SW 13.8 mph 20.7 mph N/A   Overcast
1:15 PM 58.5 °F - 55.4 °F 90% 30.01 in 10.0 mi SW 13.8 mph - N/A   Overcast
1:35 PM 58.3 °F - 55.4 °F 90% 30.01 in 10.0 mi SW 11.5 mph - N/A   Overcast
1:55 PM 58.3 °F - 55.4 °F 90% 30.01 in 10.0 mi SW 12.7 mph - N/A   Overcast
2:15 PM 58.1 °F - 55.8 °F 92% 30.02 in 3.0 mi WSW 12.7 mph 19.6 mph N/A   Overcast
2:35 PM 57.4 °F - 56.1 °F 96% 30.01 in 3.0 mi WSW 9.2 mph - N/A   Overcast
2:55 PM 57.4 °F - 56.3 °F 96% 30.01 in 2.5 mi WSW 9.2 mph - N/A   Overcast
3:15 PM 54.1 °F - 52.0 °F 92% 30.03 in 10.0 mi WNW 13.8 mph 21.9 mph N/A   Light Drizzle
3:35 PM 52.0 °F - 50.4 °F 94% 30.05 in 4.0 mi WNW 12.7 mph - N/A   Light Drizzle
3:55 PM 50.7 °F - 49.1 °F 94% 30.07 in 3.0 mi NW 11.5 mph 23.0 mph N/A Rain Rain
4:15 PM 49.3 °F - 47.3 °F 93% 30.08 in 10.0 mi WNW 13.8 mph 18.4 mph N/A Rain Light Rain
4:35 PM 48.7 °F - 46.9 °F 93% 30.09 in 10.0 mi WNW 11.5 mph 17.3 mph N/A Rain Light Rain
4:55 PM 47.7 °F - 45.7 °F 93% 30.10 in 10.0 mi NW 13.8 mph 19.6 mph N/A Rain Light Rain
5:15 PM 47.3 °F - 45.1 °F 92% 30.11 in 10.0 mi NW 12.7 mph 19.6 mph N/A Rain Light Rain
5:35 PM 46.2 °F 39.8 °F 44.6 °F 94% 30.12 in 10.0 mi NW 15.0 mph - N/A Rain Light Rain
5:55 PM 45.9 °F 41.2 °F 44.6 °F 95% 30.13 in 10.0 mi NW 9.2 mph 16.1 mph 0.01 in Rain Rain
6:15 PM 45.0 °F 37.9 °F 43.3 °F 94% 30.16 in 10.0 mi WNW 16.1 mph 21.9 mph 0.02 in Rain Rain
6:35 PM 44.6 °F 38.4 °F 43.0 °F 94% 30.16 in 7.0 mi NW 12.7 mph 19.6 mph 0.05 in Rain Rain
6:55 PM 44.6 °F 38.4 °F 42.8 °F 93% 30.17 in 10.0 mi NW 12.7 mph - 0.06 in Rain Light Rain
7:15 PM 44.6 °F 38.1 °F 42.6 °F 93% 30.17 in 10.0 mi NW 13.8 mph - N/A   Overcast
7:35 PM 44.6 °F 39.2 °F 41.9 °F 90% 30.18 in 10.0 mi NW 10.4 mph - N/A   Overcast
7:55 PM 44.6 °F 39.7 °F 41.9 °F 90% 30.16 in 10.0 mi NNW 9.2 mph - N/A   Overcast
8:15 PM 44.4 °F 39.0 °F 41.9 °F 91% 30.17 in 10.0 mi NW 10.4 mph - N/A   Overcast
8:35 PM 44.6 °F 39.7 °F 41.9 °F 90% 30.19 in 10.0 mi WNW 9.2 mph - N/A   Overcast
8:55 PM 44.6 °F 40.2 °F 41.7 °F 90% 30.18 in 10.0 mi NW 8.1 mph - N/A   Mostly Cloudy
9:15 PM 44.2 °F 40.3 °F 41.4 °F 90% 30.18 in 10.0 mi NW 6.9 mph - N/A   Scattered Clouds
9:35 PM 44.1 °F 40.1 °F 41.4 °F 90% 30.19 in 10.0 mi NW 6.9 mph - N/A   Clear
9:55 PM 43.9 °F 41.3 °F 41.4 °F 91% 30.20 in 10.0 mi WNW 4.6 mph - N/A   Scattered Clouds
10:15 PM 43.7 °F 41.1 °F 41.5 °F 92% 30.19 in 10.0 mi NW 4.6 mph - N/A   Mostly Cloudy
10:35 PM 43.7 °F 41.1 °F 41.4 °F 91% 30.20 in 10.0 mi WNW 4.6 mph - N/A   Mostly Cloudy
10:55 PM 42.6 °F 39.0 °F 41.0 °F 94% 30.20 in 10.0 mi WNW 5.8 mph - N/A   Overcast
11:15 PM 40.6 °F 36.7 °F 39.4 °F 95% 30.20 in 10.0 mi WNW 5.8 mph - N/A   Scattered Clouds
11:35 PM 40.5 °F 35.8 °F 39.4 °F 96% 30.21 in 10.0 mi WNW 6.9 mph - N/A   Clear
11:55 PM 40.6 °F 36.0 °F 39.4 °F 95% 30.21 in 10.0 mi WNW 6.9 mph - N/A   Clear